FW2402 Weather Reports


Display with metric or nautical units.
time (UTC)temp
F
wind
direction
speed
MPH
gust
MPH
rain 1hr
in
rain 24hr
in
rain mn
in
humidity
%
barometer
mb
20260506204541 96 188 1.0 7.0 0.00 0.00 0.00 37 1013.9
20260506204017 95 222 1.0 9.0 0.00 0.00 0.00 38 1013.9
20260506203517 94 263 2.0 9.0 0.00 0.00 0.00 39 1013.9
20260506203048 94 158 2.0 9.0 0.00 0.00 0.00 40 1013.9
20260506202517 93 0 0.0 5.0 0.00 0.00 0.00 43 1014.0
20260506202017 92 170 0.0 4.0 0.00 0.00 0.00 41 1014.0
20260506201545 92 0 1.0 8.0 0.00 0.00 0.00 42 1014.1
20260506201018 91 298 1.0 10.0 0.00 0.00 0.00 42 1014.0
20260506200517 93 293 5.0 11.0 0.00 0.00 0.00 39 1014.1
20260506200037 94 263 7.0 11.0 0.00 0.00 0.00 40 1014.1
20260506195520 94 266 6.0 11.0 0.00 0.00 0.00 38 1014.1
20260506195020 94 182 0.0 3.0 0.00 0.00 0.00 39 1014.1
20260506194540 95 0 0.0 3.0 0.00 0.00 0.00 39 1014.2
20260506194018 93 98 0.0 3.0 0.00 0.00 0.00 38 1014.2
20260506193518 94 211 1.0 7.0 0.00 0.00 0.00 39 1014.3
20260506193042 94 53 1.0 8.0 0.00 0.00 0.00 38 1014.4
20260506192524 94 142 4.0 8.0 0.00 0.00 0.00 39 1014.5
20260506192020 94 242 1.0 7.0 0.00 0.00 0.00 40 1014.4
20260506191541 94 182 1.0 7.0 0.00 0.00 0.00 39 1014.6
20260506191017 95 213 2.0 7.0 0.00 0.00 0.00 40 1014.6
20260506190517 95 0 2.0 7.0 0.00 0.00 0.00 41 1014.6
20260506190038 94 278 1.0 8.0 0.00 0.00 0.00 41 1014.7
20260506185519 94 117 2.0 8.0 0.00 0.00 0.00 40 1014.8
20260506185020 94 150 2.0 8.0 0.00 0.00 0.00 41 1014.9
20260506184547 95 59 1.0 7.0 0.00 0.00 0.00 38 1014.9
20260506184017 93 121 3.0 8.0 0.00 0.00 0.00 40 1015.0
20260506183518 93 85 2.0 9.0 0.00 0.00 0.00 40 1015.1
20260506183034 92 167 4.0 9.0 0.00 0.00 0.00 42 1015.3
20260506182520 92 130 2.0 8.0 0.00 0.00 0.00 43 1015.3
20260506182018 93 262 3.0 8.0 0.00 0.00 0.00 42 1015.3
20260506181541 94 168 1.0 6.0 0.00 0.00 0.00 42 1015.2
20260506181017 92 170 1.0 8.0 0.00 0.00 0.00 44 1015.2
20260506180522 92 50 1.0 8.0 0.00 0.00 0.00 42 1015.2
20260506180040 92 107 3.0 8.0 0.00 0.00 0.00 44 1015.3
20260506175521 92 120 3.0 8.0 0.00 0.00 0.00 42 1015.4
20260506175020 92 119 4.0 8.0 0.00 0.00 0.00 44 1015.4
20260506174538 92 142 2.0 9.0 0.00 0.00 0.00 42 1015.5
20260506174019 91 0 1.0 9.0 0.00 0.00 0.00 43 1015.6
20260506173520 91 181 3.0 9.0 0.00 0.00 0.00 45 1015.7
20260506173046 90 285 3.0 12.0 0.00 0.00 0.00 47 1015.7
20260506172517 92 176 3.0 12.0 0.00 0.00 0.00 46 1015.8
20260506172024 90 132 1.0 6.0 0.00 0.00 0.00 48 1015.7
20260506171550 92 273 2.0 11.0 0.00 0.00 0.00 45 1015.8
20260506171021 91 174 2.0 12.0 0.00 0.00 0.00 48 1015.9
20260506170521 89 268 6.0 12.0 0.00 0.00 0.00 49 1015.9
20260506170035 89 269 2.0 8.0 0.00 0.00 0.00 47 1015.9
20260506165521 89 241 0.0 10.0 0.00 0.00 0.00 48 1015.9
20260506165020 90 257 2.0 10.0 0.00 0.00 0.00 47 1016.0
20260506164543 91 166 2.0 10.0 0.00 0.00 0.00 48 1016.0
20260506164023 89 76 3.0 10.0 0.00 0.00 0.00 47 1016.0
20260506163523 90 164 3.0 9.0 0.00 0.00 0.00 48 1016.2
20260506163058 90 27 2.0 7.0 0.00 0.00 0.00 45 1016.2
20260506162522 89 135 2.0 9.0 0.00 0.00 0.00 50 1016.3
20260506162017 88 66 3.0 9.0 0.00 0.00 0.00 50 1016.3
20260506161544 88 104 2.0 9.0 0.00 0.00 0.00 49 1016.4
20260506161017 87 219 2.0 6.0 0.00 0.00 0.00 51 1016.5
20260506160523 87 275 2.0 9.0 0.00 0.00 0.00 53 1016.5
20260506160042 88 166 2.0 9.0 0.00 0.00 0.00 51 1016.5
20260506155520 88 150 1.0 9.0 0.00 0.00 0.00 53 1016.6
20260506155017 88 211 1.0 9.0 0.00 0.00 0.00 52 1016.7
20260506154540 87 242 4.0 9.0 0.00 0.00 0.00 53 1016.7
20260506154022 86 153 3.0 8.0 0.00 0.00 0.00 53 1016.6
20260506153516 87 142 1.0 9.0 0.00 0.00 0.00 54 1016.5
20260506153039 87 166 2.0 9.0 0.00 0.00 0.00 52 1016.6
20260506152521 87 163 2.0 8.0 0.00 0.00 0.00 53 1016.6
20260506152017 87 111 2.0 7.0 0.00 0.00 0.00 54 1016.6
20260506151535 87 206 2.0 8.0 0.00 0.00 0.00 55 1016.6
20260506151019 85 113 4.0 8.0 0.00 0.00 0.00 56 1016.5
20260506150520 86 149 3.0 11.0 0.00 0.00 0.00 55 1016.4
20260506150040 85 163 4.0 11.0 0.00 0.00 0.00 57 1016.5
20260506145521 85 153 2.0 9.0 0.00 0.00 0.00 58 1016.5
20260506145021 84 219 4.0 10.0 0.00 0.00 0.00 58 1016.3
20260506144538 84 235 2.0 10.0 0.00 0.00 0.00 61 1016.5
20260506144017 84 91 3.0 10.0 0.00 0.00 0.00 61 1016.4
20260506143516 83 182 5.0 10.0 0.00 0.00 0.00 60 1016.3
20260506143037 83 169 3.0 10.0 0.00 0.00 0.00 63 1016.3
20260506142516 83 129 3.0 8.0 0.00 0.00 0.00 63 1016.3
20260506142017 82 162 2.0 8.0 0.00 0.00 0.00 64 1016.3
20260506141534 82 180 4.0 8.0 0.00 0.00 0.00 65 1016.3
20260506141017 82 133 2.0 10.0 0.00 0.00 0.00 70 1016.4
20260506140522 80 170 4.0 10.0 0.00 0.00 0.00 68 1016.4
20260506140042 80 168 4.0 9.0 0.00 0.00 0.00 69 1016.4
20260506135517 79 117 5.0 9.0 0.00 0.00 0.00 71 1016.3
20260506135016 79 117 4.0 9.0 0.00 0.00 0.00 72 1016.3
20260506134532 79 173 3.0 11.0 0.00 0.00 0.00 74 1016.3
20260506134018 78 167 5.0 11.0 0.00 0.00 0.00 74 1016.4
20260506133519 78 184 5.0 10.0 0.00 0.00 0.00 76 1016.4
20260506133037 77 118 5.0 9.0 0.00 0.00 0.00 77 1016.3
20260506132516 77 145 4.0 10.0 0.00 0.00 0.00 79 1016.4
20260506132020 76 173 5.0 10.0 0.00 0.00 0.00 81 1016.3
20260506131533 75 171 5.0 9.0 0.00 0.00 0.00 80 1016.1
20260506131019 75 112 3.0 8.0 0.00 0.00 0.00 81 1016.2
20260506130520 75 123 2.0 8.0 0.00 0.00 0.00 81 1016.1
20260506130036 74 128 3.0 8.0 0.00 0.00 0.00 82 1016.2
20260506125517 74 118 4.0 7.0 0.00 0.00 0.00 82 1016.1
20260506125017 73 173 3.0 8.0 0.00 0.00 0.00 83 1016.1
20260506124538 72 126 3.0 8.0 0.00 0.00 0.00 83 1016.0
20260506124016 72 134 3.0 9.0 0.00 0.00 0.00 84 1015.9
20260506123516 71 136 4.0 9.0 0.00 0.00 0.00 85 1015.9
20260506123036 71 98 2.0 7.0 0.00 0.00 0.00 86 1015.9
20260506122516 70 115 2.0 6.0 0.00 0.00 0.00 86 1015.8
20260506122016 69 138 1.0 5.0 0.00 0.00 0.00 88 1015.7
20260506121534 68 156 1.0 4.0 0.00 0.00 0.00 88 1015.8
20260506121017 67 0 1.0 4.0 0.00 0.00 0.00 89 1015.6
20260506120517 66 144 2.0 4.0 0.00 0.00 0.00 90 1015.5
20260506120045 65 125 2.0 4.0 0.00 0.00 0.00 90 1015.5
20260506115517 65 117 1.0 3.0 0.00 0.00 0.00 91 1015.5
20260506115016 64 0 0.0 0.0 0.00 0.00 0.00 91 1015.5
20260506114537 63 0 0.0 0.0 0.00 0.00 0.00 91 1015.4
20260506114017 63 0 0.0 0.0 0.00 0.00 0.00 91 1015.4
20260506113518 62 0 0.0 0.0 0.00 0.00 0.00 92 1015.5
20260506113035 62 0 0.0 0.0 0.00 0.00 0.00 92 1015.4
20260506112519 61 0 0.0 0.0 0.00 0.00 0.00 93 1015.5
20260506112019 60 0 0.0 0.0 0.00 0.00 0.00 93 1015.5
20260506111543 60 0 0.0 0.0 0.00 0.00 0.00 92 1015.4
20260506111017 60 0 0.0 0.0 0.00 0.00 0.00 93 1015.4
20260506110517 60 0 0.0 0.0 0.00 0.00 0.00 93 1015.4
20260506110041 60 0 0.0 0.0 0.00 0.00 0.00 93 1015.4
20260506105520 59 0 0.0 0.0 0.00 0.00 0.00 92 1015.3
20260506105021 60 0 0.0 0.0 0.00 0.00 0.00 93 1015.2
20260506104544 59 0 0.0 0.0 0.00 0.00 0.00 92 1015.2
20260506104020 59 0 0.0 0.0 0.00 0.00 0.00 92 1015.1
20260506103520 60 0 0.0 0.0 0.00 0.00 0.00 91 1015.0
20260506103037 59 0 0.0 0.0 0.00 0.00 0.00 91 1015.0
20260506102523 60 0 0.0 0.0 0.00 0.00 0.00 91 1014.9
20260506102020 60 0 0.0 0.0 0.00 0.00 0.00 90 1014.8
20260506101537 61 0 0.0 0.0 0.00 0.00 0.00 91 1014.8
20260506101020 61 0 0.0 0.0 0.00 0.00 0.00 91 1014.9
20260506100520 61 0 0.0 0.0 0.00 0.00 0.00 91 1014.9
20260506100039 61 0 0.0 0.0 0.00 0.00 0.00 91 1014.7
20260506095524 61 0 0.0 0.0 0.00 0.00 0.00 92 1014.8
20260506095021 60 0 0.0 0.0 0.00 0.00 0.00 92 1014.9
20260506094546 60 0 0.0 0.0 0.00 0.00 0.00 91 1015.0
20260506094017 60 0 0.0 0.0 0.00 0.00 0.00 90 1015.0
20260506093523 61 0 0.0 0.0 0.00 0.00 0.00 90 1014.9
20260506093102 61 0 0.0 0.0 0.00 0.00 0.00 91 1014.7
20260506092520 61 0 0.0 0.0 0.00 0.00 0.00 91 1014.8
20260506092020 61 0 0.0 0.0 0.00 0.00 0.00 91 1014.6
20260506091545 60 0 0.0 0.0 0.00 0.00 0.00 92 1014.8
20260506091021 60 0 0.0 0.0 0.00 0.00 0.00 91 1014.9
20260506090520 60 0 0.0 0.0 0.00 0.00 0.00 91 1014.8
20260506090040 60 0 0.0 0.0 0.00 0.00 0.00 91 1014.7
20260506085523 60 0 0.0 0.0 0.00 0.00 0.00 91 1014.7
20260506085021 60 0 0.0 0.0 0.00 0.00 0.00 90 1014.7
20260506084536 60 0 0.0 0.0 0.00 0.00 0.00 90 1014.8
20260506084022 60 0 0.0 0.0 0.00 0.00 0.00 90 1014.7
20260506083520 61 0 0.0 0.0 0.00 0.00 0.00 90 1014.7
20260506083040 61 0 0.0 0.0 0.00 0.00 0.00 90 1014.6
20260506082520 60 0 0.0 0.0 0.00 0.00 0.00 90 1014.6
20260506082018 60 0 0.0 0.0 0.00 0.00 0.00 90 1014.7
20260506081541 61 0 0.0 0.0 0.00 0.00 0.00 89 1014.6
20260506081022 61 0 0.0 0.0 0.00 0.00 0.00 90 1014.6
20260506080521 61 0 0.0 0.0 0.00 0.00 0.00 89 1014.6
20260506073521 61 0 0.0 0.0 0.00 0.00 0.00 90 1014.9
20260506073039 61 0 0.0 0.0 0.00 0.00 0.00 90 1014.9
20260506072519 61 0 0.0 0.0 0.00 0.00 0.00 90 1015.0
20260506072020 60 0 0.0 0.0 0.00 0.00 0.00 90 1015.0
20260506071536 60 0 0.0 0.0 0.00 0.00 0.00 90 1015.1
20260506071021 60 0 0.0 0.0 0.00 0.00 0.00 89 1015.1
20260506070523 61 0 0.0 0.0 0.00 0.00 0.00 89 1015.0
20260506062021 63 0 0.0 0.0 0.00 0.00 0.00 86 1015.3
20260506061555 63 0 0.0 0.0 0.00 0.00 0.00 86 1015.3
20260506061019 63 0 0.0 0.0 0.00 0.00 0.00 86 1015.3
20260506060518 63 0 0.0 0.0 0.00 0.00 0.00 86 1015.5
20260506051015 65 0 0.0 0.0 0.00 0.00 0.00 80 1015.7
20260506050516 66 0 0.0 0.0 0.00 0.00 0.00 79 1015.8
20260506045018 66 0 0.0 0.0 0.00 0.00 0.00 80 1016.0
20260506044534 65 0 0.0 0.0 0.00 0.00 0.00 81 1016.0
20260506044015 65 0 0.0 0.0 0.00 0.00 0.00 82 1016.1
20260506043516 64 0 0.0 0.0 0.00 0.00 0.00 81 1016.2
20260506043033 66 0 0.0 0.0 0.00 0.00 0.00 78 1016.1
20260506042515 67 0 0.0 0.0 0.00 0.00 0.00 78 1016.2
20260506042016 67 0 0.0 0.0 0.00 0.00 0.00 78 1016.2
20260506041536 67 0 0.0 0.0 0.00 0.00 0.00 77 1016.1
20260506041016 67 0 0.0 0.0 0.00 0.00 0.00 76 1016.1
20260506040516 68 0 0.0 0.0 0.00 0.00 0.00 75 1016.1
20260506040035 68 0 0.0 1.0 0.00 0.00 0.00 74 1016.2
20260506035516 69 0 0.0 1.0 0.00 0.00 0.00 72 1016.0
20260506035018 70 0 0.0 2.0 0.00 0.00 0.00 71 1015.9
20260506034534 70 105 0.0 2.0 0.00 0.00 0.00 71 1015.8
20260506034016 70 115 1.0 2.0 0.00 0.00 0.00 70 1015.8
20260506033515 71 0 0.0 4.0 0.00 0.00 0.00 70 1015.8
20260506033043 71 0 1.0 4.0 0.00 0.00 0.00 70 1015.8
20260506032515 71 145 1.0 4.0 0.00 0.00 0.00 70 1015.7
20260506032015 71 116 1.0 6.0 0.00 0.00 0.00 69 1015.6
20260506031533 71 110 1.0 7.0 0.00 0.00 0.00 69 1015.7
20260506031016 71 118 3.0 7.0 0.00 0.00 0.00 69 1015.6
20260506030515 71 125 2.0 7.0 0.00 0.00 0.00 68 1015.6
20260506030037 71 101 2.0 7.0 0.00 0.00 0.00 68 1015.6
20260506025516 71 113 3.0 7.0 0.00 0.00 0.00 68 1015.7
20260506025015 71 105 3.0 7.0 0.00 0.00 0.00 68 1015.6
20260506024535 72 122 2.0 4.0 0.00 0.00 0.00 67 1015.7
20260506024016 72 111 0.0 5.0 0.00 0.00 0.00 67 1015.6
20260506023516 71 113 1.0 5.0 0.00 0.00 0.00 68 1015.6
20260506023047 71 101 1.0 4.0 0.00 0.00 0.00 67 1015.6
20260506022515 71 113 0.0 1.0 0.00 0.00 0.00 67 1015.5
20260506022015 72 0 0.0 0.0 0.00 0.00 0.00 66 1015.5
20260506021532 71 0 0.0 0.0 0.00 0.00 0.00 67 1015.5
20260506021016 71 0 0.0 0.0 0.00 0.00 0.00 67 1015.5
20260506020515 72 0 0.0 0.0 0.00 0.00 0.00 66 1015.4
20260506020105 72 0 0.0 0.0 0.00 0.00 0.00 65 1015.3
20260506015517 72 0 0.0 0.0 0.00 0.00 0.00 65 1015.4
20260506015021 72 0 0.0 0.0 0.00 0.00 0.00 66 1015.5
20260506014538 73 0 0.0 1.0 0.00 0.00 0.00 64 1015.4
20260506014016 73 0 0.0 3.0 0.00 0.00 0.00 63 1015.3
20260506013520 74 0 0.0 4.0 0.00 0.00 0.00 62 1015.3
20260506013037 74 136 0.0 4.0 0.00 0.00 0.00 61 1015.1
20260506012517 74 153 0.0 2.0 0.00 0.00 0.00 61 1015.0
20260506012017 74 0 0.0 2.0 0.00 0.00 0.00 61 1014.9
20260506011539 75 0 0.0 4.0 0.00 0.00 0.00 60 1014.9
20260506011017 75 0 1.0 6.0 0.00 0.00 0.00 59 1014.9
20260506010517 75 109 2.0 7.0 0.00 0.00 0.00 59 1014.7
20260506010035 75 98 3.0 8.0 0.00 0.00 0.00 59 1014.6
20260506005517 76 88 4.0 10.0 0.00 0.00 0.00 58 1014.6
20260506005016 76 86 4.0 10.0 0.00 0.00 0.00 58 1014.5
20260506004544 76 95 4.0 10.0 0.00 0.00 0.00 58 1014.4
20260506004018 76 59 5.0 10.0 0.00 0.00 0.00 57 1014.2
20260506003520 77 94 5.0 12.0 0.00 0.00 0.00 57 1014.1
20260506003034 77 77 6.0 12.0 0.00 0.00 0.00 57 1014.1
20260506002516 77 88 7.0 12.0 0.00 0.00 0.00 56 1014.0
20260506002016 78 88 5.0 11.0 0.00 0.00 0.00 56 1013.8
20260506001533 78 126 6.0 11.0 0.00 0.00 0.00 56 1013.9
20260506001018 78 77 7.0 11.0 0.00 0.00 0.00 56 1013.9
20260506000518 78 64 6.0 11.0 0.00 0.00 0.00 56 1013.8
20260506000053 78 73 6.0 10.0 0.00 0.00 0.00 56 1013.8
20260505235517 79 34 6.0 12.0 0.00 0.00 0.00 56 1013.8
20260505235017 79 77 8.0 12.0 0.00 0.00 0.00 55 1013.7
20260505234540 79 80 6.0 11.0 0.00 0.00 0.00 55 1013.6
20260505234018 80 78 7.0 13.0 0.00 0.00 0.00 55 1013.5
20260505233516 80 65 6.0 13.0 0.00 0.00 0.00 54 1013.4
20260505233034 81 47 7.0 12.0 0.00 0.00 0.00 52 1013.5
20260505232517 82 56 5.0 12.0 0.00 0.00 0.00 50 1013.4
20260505232017 83 104 3.0 6.0 0.00 0.00 0.00 49 1013.3
20260505231535 83 87 2.0 8.0 0.00 0.00 0.00 50 1013.3
20260505231016 83 96 3.0 8.0 0.00 0.00 0.00 48 1013.3
20260505230516 84 91 4.0 8.0 0.00 0.00 0.00 47 1013.3
20260505230042 84 72 3.0 7.0 0.00 0.00 0.00 46 1013.3
20260505225522 84 52 2.0 6.0 0.00 0.00 0.00 46 1013.4
20260505225025 84 78 3.0 6.0 0.00 0.00 0.00 46 1013.4
20260505224547 84 65 3.0 8.0 0.00 0.00 0.00 46 1013.5
20260505224020 84 98 3.0 8.0 0.00 0.00 0.00 46 1013.5
20260505223522 85 115 4.0 10.0 0.00 0.00 0.00 45 1013.5
20260505223039 85 67 4.0 10.0 0.00 0.00 0.00 45 1013.5
20260505222518 85 90 5.0 10.0 0.00 0.00 0.00 45 1013.5
20260505222017 86 57 2.0 6.0 0.00 0.00 0.00 44 1013.5
20260505221544 86 85 2.0 8.0 0.00 0.00 0.00 44 1013.6
20260505221020 85 107 4.0 8.0 0.00 0.00 0.00 45 1013.6
20260505220516 85 108 5.0 8.0 0.00 0.00 0.00 43 1013.6
20260505220035 85 85 3.0 7.0 0.00 0.00 0.00 46 1013.6
20260505215521 84 32 4.0 7.0 0.00 0.00 0.00 45 1013.6
20260505215017 84 38 3.0 7.0 0.00 0.00 0.00 45 1013.6
20260505214544 84 51 2.0 9.0 0.00 0.00 0.00 47 1013.6
20260505214022 84 81 3.0 9.0 0.00 0.00 0.00 46 1013.7
20260505213520 84 71 4.0 9.0 0.00 0.00 0.00 46 1013.6
20260505213037 84 35 5.0 9.0 0.00 0.00 0.00 45 1013.7
20260505212521 84 49 3.0 9.0 0.00 0.00 0.00 46 1013.6
20260505212020 84 69 4.0 10.0 0.00 0.00 0.00 45 1013.6
20260505211557 85 74 4.0 10.0 0.00 0.00 0.00 44 1013.6
20260505211016 85 46 3.0 10.0 0.00 0.00 0.00 44 1013.5
20260505210516 87 72 5.0 10.0 0.00 0.00 0.00 42 1013.4
20260505210041 89 84 3.0 7.0 0.00 0.00 0.00 38 1013.4
20260505205526 89 88 2.0 6.0 0.00 0.00 0.00 40 1013.4
20260505205024 87 250 1.0 5.0 0.00 0.00 0.00 43 1013.4